Regional Weather Roundup
Issued by NWS

Home | Current Version | Previous Version | Graphics & Text | Print | Product List | Glossary On
Versions: 1 2 3 4 5 6 7 8 9 10 11 12 13 14 15 16 17 18 19 20 21 22 23 24 25 26 27 28 29 30 31 32 33 34 35 36 37 38 39 40 41 42 43 44 45 46 47 48 49 50
000
ASUS43 KIND 280609
RWRIN

WEATHER ROUNDUP FOR INDIANA
NATIONAL WEATHER SERVICE INDIANAPOLIS IN
100 AM EST FRI NOV 28 2014

NOTE: "FAIR" INDICATES FEW OR NO CLOUDS BELOW 12,000 FEET WITH NO
SIGNIFICANT WEATHER AND/OR OBSTRUCTIONS TO VISIBILITY.

* - STATION DOES NOT REPORT WEATHER SUCH AS PRECIPITATION OR FOG.

+ - STATION NOT QUALITY CONTROLLED BY THE NATIONAL WEATHER SERVICE.
    USE DATA WITH CAUTION...ESPECIALLY DEWPOINT AND RELATIVE
    HUMIDITY OBSERVATIONS.

INZ001>003-010>013-019-020-280700-
NORTHWEST INDIANA

CITY           SKY/WX    TMP DP  RH WIND       PRES   REMARKS
GARY /AIRPORT/ PTCLDY    20  11  67 CALM      30.39F
KNOX *+        PTCLDY    21  14  74 W3        30.37F
LA PORTE +     CLOUDY    23  19  83 W5        30.37F WCI  17
6HR MIN TEMP:  23; 6HR MAX TEMP:  26;

MICHIGAN CITY+ CLOUDY    23  10  58 SW7       30.38F WCI  15
MONTICELLO +   CLOUDY    22  15  74 NW6       30.38F WCI  14
RENSSELAER +   PTCLDY    19  18  93 CALM      30.38F
VALPARAISO     PTCLDY    20  13  74 W3        30.37F
6HR MIN TEMP:  19; 6HR MAX TEMP:  23; 6HR PCP: TRACE;


$$

LMZ046-743>745-280700-
SOUTHERN LAKE MICHIGAN

STATION/POSITION TIME  TEMP WIND        PRES
                       AIR  DIR/SP/G
                 (UTC) (F)  (DEG/KT/KT) (MB)
MICHIGAN CITY    0600   23  200/ 10/ 13   N/A

$$

INZ004-005-014>016-021>024-280700-
NORTH CENTRAL INDIANA

CITY           SKY/WX    TMP DP  RH WIND       PRES   REMARKS
GOSHEN         CLOUDY    20  15  81 W7        30.34F WCI  11
6HR MIN TEMP:  20; 6HR MAX TEMP:  26; 6HR PCP:  0.01;

LOGANSPORT +   CLOUDY    23  18  80 W7        30.38F WCI  15
ROCHESTER +    CLEAR     23  16  74 W3        30.37S
SOUTH BEND     CLOUDY    22  14  71 W9        30.36S WCI  12
6HR MIN TEMP:  21; 6HR MAX TEMP:  26; 6HR PCP: TRACE;

WARSAW +       CLEAR     18  16  93 CALM      30.35F

$$

INZ006>009-017-018-025>027-280700-
NORTHEAST INDIANA

CITY           SKY/WX    TMP DP  RH WIND       PRES   REMARKS
ANGOLA *+      CLOUDY    21  18  86 CALM      30.32S
AUBURN +       FLURRIES  25  19  80 W6        30.35F WCI  18
FORT WAYNE     MOCLDY    22  17  81 W8        30.36F WCI  12
6HR MIN TEMP:  22; 6HR MAX TEMP:  27; 6HR PCP: TRACE;

HUNTINGTON +   CLEAR     19  15  86 W3        30.36F
6HR MIN TEMP:  19; 6HR MAX TEMP:  26;


$$

INZ028-029-035-036-043>045-051>053-280700-
WEST CENTRAL INDIANA

CITY           SKY/WX    TMP DP  RH WIND       PRES   REMARKS
GREENCASTLE +  PTCLDY    19  18  93 CALM      30.40F
LAFAYETTE      CLEAR     18  14  84 SW3       30.40F
6HR MIN TEMP:  18; 6HR MAX TEMP:  25; 6HR PCP: TRACE;

TERRE HAUTE    CLEAR     17  13  84 CALM      30.41F
6HR MIN TEMP:  17; 6HR MAX TEMP:  27;


$$

INZ030>032-037>040-046>048-054>057-064-065-280700-
CENTRAL INDIANA

CITY           SKY/WX    TMP DP  RH WIND       PRES   REMARKS
CP ATTERBURY + CLOUDY    28  21  74 NW3       30.41S
FRANKFORT +    CLEAR     19  17  93 SW7       30.39F WCI   9
INDIANAPOLIS   FLURRIES  24  15  68 NW7       30.37F WCI  16
6HR MIN TEMP:  24; 6HR MAX TEMP:  26; 6HR PCP: TRACE;

-EAGLE CREEK   CLOUDY    23  15  71 NW7       30.38F WCI  15
6HR MIN TEMP:  23; 6HR MAX TEMP:  27; 6HR PCP: TRACE;

KOKOMO *+      CLOUDY    25  18  74 W9        30.37F WCI  15
MARION +         N/A     23  15  71 NW5       30.37F WCI  17
MT COMFORT *+  PTCLDY    21  12  68 W5        30.38F WCI  15
SHELBYVILLE    CLOUDY    27  19  72 W6        30.39F WCI  20
6HR MIN TEMP:  26; 6HR MAX TEMP:  29; 6HR PCP: TRACE;

ZIONSVILLE +   PTCLDY    21  16  78 W3        30.38F
6HR MIN TEMP:  21; 6HR MAX TEMP:  26;


$$

INZ033-034-041-042-049-050-058-059-280700-
EAST CENTRAL INDIANA

CITY           SKY/WX    TMP DP  RH WIND       PRES   REMARKS
MUNCIE         MOCLDY    22  16  78 NW5       30.36F WCI  16
6HR MIN TEMP:  22; 6HR MAX TEMP:  26; 6HR PCP: TRACE;


$$

INZ060-061-067>069-081>083-085>088-280700-
SOUTHWEST INDIANA

CITY           SKY/WX    TMP DP  RH WIND       PRES   REMARKS
EVANSVILLE     CLEAR     22  18  85 CALM      30.46F
6HR MIN TEMP:  22; 6HR MAX TEMP:  30;

HUNTINGBURG *+ CLEAR     23  14  68 CALM      30.44S
6HR MIN TEMP:  21; 6HR MAX TEMP:  28;

WASHINGTON +   CLEAR     21  19  91 CALM      30.43F
6HR MIN TEMP:  21; 6HR MAX TEMP:  29;


$$

INZ062-063-066-070>080-084-089>092-280700-
SOUTH CENTRAL AND SOUTHEAST INDIANA

CITY           SKY/WX    TMP DP  RH WIND       PRES   REMARKS
BLOOMINGTON    CLEAR     19  17  92 CALM      30.40F
6HR MIN TEMP:  19; 6HR MAX TEMP:  27; 6HR PCP: TRACE;

NORTH VERNON + CLOUDY    28  25  86 SW6       30.40F WCI  22

$$



USA.gov is the U.S. government's official web portal to all federal, state and local government web resources and services.